Theta_e
324 322 324 323 322 321 325 327 323 324 321 322 322 324 327 330 334 335 340 343 345 344 343 343 343 342 343 343 343 341 341 340 340 339 338 336 336 333 331 332 333 333 335 334 332 336 339 339 337
323 322 325 318 323 325 324 321 323 322 320 320 322 322 326 341 337 343 344 345 344 342 343 343 342 340 340 341 342 340 340 340 341 340 338 335 335 332 330 328 331 333 336 335 334 339 339 338 335
322 326 321 322 322 325 323 321 321 320 319 321 324 322 328 336 337 343 344 346 343 342 343 343 340 338 339 342 341 341 341 340 340 340 337 334 333 331 329 328 329 333 335 335 337 336 334 333 329
324 322 318 323 326 322 322 321 319 319 320 322 323 326 331 334 338 340 345 345 343 343 344 343 340 338 338 341 340 340 340 339 339 339 336 334 331 330 328 327 327 332 333 333 332 330 330 330 330
322 318 323 323 323 320 319 318 319 320 319 323 323 325 335 337 338 345 346 346 343 343 343 342 339 337 339 339 337 336 338 337 337 337 334 331 331 330 327 326 326 327 331 331 331 331 328 327 325
319 318 324 324 321 320 317 317 318 318 318 320 322 329 332 337 341 347 347 346 343 343 342 340 339 336 334 333 329 329 333 335 335 334 331 331 333 332 327 328 327 327 329 330 330 327 321 318 320
319 318 324 322 322 321 320 318 317 317 317 320 319 323 332 335 340 346 346 346 344 343 341 339 337 335 329 328 328 326 329 331 331 331 332 333 332 331 328 325 328 329 330 327 324 323 321 323 324
316 318 322 320 321 320 318 319 317 316 317 318 318 329 335 333 338 345 345 346 346 344 341 339 337 335 330 330 329 326 329 330 330 333 333 333 332 330 330 324 324 325 323 322 321 322 324 325 326
316 320 323 323 320 320 319 321 318 318 318 320 319 324 331 337 337 342 345 345 344 343 341 339 338 336 332 331 331 328 329 331 331 332 332 332 334 333 331 327 322 323 322 323 324 325 326 327 326
318 320 322 321 321 321 320 322 321 319 319 319 322 326 336 338 337 338 344 344 343 343 342 340 339 337 334 333 333 331 327 330 331 332 332 331 331 333 333 329 323 323 324 325 326 326 327 328 326
318 322 321 322 322 322 323 322 321 321 321 318 320 328 327 334 336 336 341 344 344 343 342 341 339 338 335 335 334 334 331 327 329 330 330 330 330 332 334 330 326 324 324 326 327 327 328 324 326
322 319 320 321 321 321 322 322 323 322 320 319 318 317 319 325 326 335 337 340 343 345 344 341 340 338 336 336 335 334 334 331 326 326 328 329 331 333 334 331 331 324 325 326 328 328 324 321 320
318 319 319 319 319 319 318 321 322 321 319 317 316 317 318 317 320 327 334 337 340 342 343 342 340 339 338 337 337 335 335 334 331 325 325 329 330 332 332 332 326 325 325 327 328 327 322 318 315
319 318 318 318 319 318 319 318 318 318 317 316 316 316 315 316 317 320 323 331 335 339 340 342 342 340 339 339 338 338 336 336 335 331 323 326 329 331 333 331 327 328 327 328 328 323 321 317 313
320 322 319 319 319 319 319 320 318 317 316 316 315 314 315 313 316 316 319 322 324 332 339 339 342 342 340 340 339 339 338 337 336 334 331 325 328 330 331 328 328 328 329 328 324 320 317 316 313
320 319 322 319 319 318 318 322 318 315 315 315 314 314 314 314 314 317 318 319 320 323 327 338 340 341 341 340 340 340 339 338 337 335 334 331 329 329 326 326 327 328 328 325 321 317 315 313 309
317 320 319 319 317 318 318 320 317 317 313 314 312 312 313 314 313 315 318 319 319 319 320 326 337 340 341 341 340 340 339 339 338 336 335 333 330 328 327 326 328 326 325 322 320 317 314 309 304
320 319 316 317 314 316 316 318 316 313 313 313 312 310 310 312 314 315 316 318 319 319 319 319 331 338 339 340 340 340 339 339 338 337 335 334 330 329 328 328 327 326 324 320 317 315 310 305 302
316 317 316 314 314 313 312 312 312 312 310 311 311 309 310 311 312 313 315 316 317 318 318 319 319 335 338 339 339 339 339 340 339 338 336 334 332 330 329 329 327 325 323 320 315 312 306 302 300
318 318 316 314 313 313 311 311 311 311 311 311 312 312 310 309 309 309 313 315 316 316 317 318 319 319 336 338 338 338 338 340 340 338 337 334 333 331 330 330 327 324 319 315 313 311 303 301 299
315 315 315 315 312 310 310 311 310 309 309 310 311 310 310 310 310 308 308 311 314 314 316 317 317 319 323 337 338 338 337 336 338 337 336 335 333 332 331 330 329 323 317 315 312 307 304 302 297
316 312 313 313 313 313 310 313 310 309 309 308 308 307 309 309 307 308 307 308 312 313 315 316 317 318 320 330 338 336 335 334 335 336 337 336 332 331 331 330 327 320 316 314 308 303 303 303 300
314 311 312 311 311 309 310 312 309 308 311 311 309 305 304 307 307 306 305 308 311 312 313 313 314 315 319 322 330 335 334 334 335 335 335 335 331 327 329 327 322 316 312 309 304 303 303 301 300
311 311 310 310 308 305 309 311 309 310 310 309 307 306 305 306 306 305 307 309 310 311 312 312 312 314 315 320 322 328 333 333 331 330 328 327 325 323 322 318 314 311 308 305 304 301 300 299 298
310 307 303 305 305 308 309 311 310 309 309 308 308 306 305 304 304 306 308 307 310 311 312 313 313 312 313 316 321 326 331 333 332 329 325 320 318 316 316 313 309 306 307 305 301 299 298 296 295
311 308 306 307 312 312 309 313 310 308 306 305 305 304 304 304 303 304 308 308 310 311 312 312 312 313 313 313 317 323 326 329 327 325 323 319 314 312 310 309 306 306 304 301 299 298 295 294 293
313 309 308 306 303 303 308 306 304 307 306 306 306 306 306 305 305 304 307 309 310 311 311 311 312 313 313 313 316 323 325 323 324 321 319 314 311 309 306 305 303 301 300 299 297 295 294 292 292
310 309 309 299 301 306 308 308 307 309 310 308 307 307 308 310 309 306 307 309 311 311 310 311 313 314 314 313 318 322 323 321 320 317 313 311 309 306 304 303 301 298 298 296 295 293 292 292 291
313 312 307 305 304 305 308 309 305 308 309 308 307 307 309 309 308 306 307 307 311 311 310 310 313 315 314 318 319 316 315 315 315 311 309 308 306 304 301 300 299 296 295 294 293 292 291 290 290
310 311 307 302 301 299 309 309 308 307 307 307 309 310 311 309 309 307 304 306 308 309 312 314 316 317 318 317 314 312 312 310 309 308 306 304 302 299 299 298 296 295 294 293 291 290 291 293 291
Wind_Speed
12 9 8 4 3 4 3 7 3 9 6 4 3 6 4 2 2 3 3 16 26 32 28 26 23 23 24 21 20 19 18 17 17 15 14 13 12 11 11 11 10 9 9 14 14 12 16 15 13
11 6 1 2 4 1 5 4 9 7 8 6 3 5 3 2 3 6 14 21 31 31 29 27 25 24 21 20 20 20 19 18 16 17 16 13 13 11 10 10 11 11 12 14 15 16 17 14 11
6 1 3 4 4 6 5 5 2 7 6 5 2 3 6 4 0 15 11 30 31 32 30 27 25 22 19 20 21 20 19 19 18 18 15 14 13 12 11 11 11 12 13 14 13 14 13 12 9
3 2 3 4 8 8 8 3 1 9 7 4 2 5 2 2 9 12 30 32 32 31 30 28 24 20 19 20 20 19 18 16 16 17 16 14 13 12 12 11 12 13 13 13 12 11 10 9 7
2 2 2 4 8 5 6 4 4 8 6 3 3 2 1 2 8 25 34 31 33 31 29 27 23 19 19 20 19 19 18 18 19 18 16 14 14 13 12 11 12 13 13 12 11 10 8 6 5
2 2 2 7 7 4 7 6 2 6 7 6 4 7 2 6 25 30 31 31 30 32 30 27 22 20 20 19 19 19 20 19 19 17 17 17 15 13 12 12 13 13 13 11 10 9 7 6 6
5 3 5 5 6 6 10 5 5 8 10 8 5 5 0 1 23 29 28 29 29 31 32 28 24 21 21 19 18 19 20 20 20 21 19 18 15 12 11 12 13 12 12 11 10 8 8 8 8
5 3 3 5 5 7 5 0 5 6 11 3 4 6 5 7 23 28 28 28 30 32 32 30 27 24 23 21 19 19 21 22 23 21 20 17 14 12 11 11 11 11 10 10 10 10 10 9 9
5 2 5 6 8 5 2 4 6 3 4 2 1 7 7 25 24 27 24 24 27 29 33 32 30 27 24 22 20 20 22 24 23 21 19 18 17 15 12 10 10 10 9 9 10 10 10 10 9
5 5 7 5 5 3 4 1 5 7 4 3 4 4 14 27 25 22 20 20 23 26 32 32 30 28 26 24 23 22 22 24 24 23 20 18 17 17 16 12 11 10 9 10 10 9 9 8 8
5 6 8 8 6 0 4 4 4 3 5 3 2 4 5 8 15 19 23 30 35 32 31 33 32 29 29 27 26 24 23 23 25 24 23 20 17 18 18 15 13 12 11 11 11 10 8 5 11
3 6 8 3 6 3 4 3 2 4 6 4 1 5 6 6 6 13 23 26 29 34 35 34 34 32 31 29 29 27 26 24 24 24 24 24 20 19 21 18 15 14 14 13 11 9 9 8 8
4 4 4 7 8 4 5 6 6 7 10 10 3 6 7 7 10 17 15 24 32 34 37 36 37 36 35 33 32 30 28 26 23 23 25 25 24 22 23 19 16 16 16 15 13 12 10 8 8
2 8 5 3 3 3 5 6 4 4 9 10 7 8 7 8 8 10 13 20 22 32 34 37 39 39 37 37 35 33 31 28 25 23 25 27 26 24 26 22 18 18 17 15 14 14 12 10 7
4 2 2 5 3 4 1 15 8 9 7 10 13 10 8 9 17 15 20 18 16 26 32 37 38 41 40 40 37 35 35 31 30 27 25 27 28 25 27 23 22 19 18 17 19 15 13 9 7
5 4 2 3 2 5 8 19 4 11 8 11 11 13 12 10 14 26 28 26 24 16 21 36 39 39 40 40 40 38 35 32 32 31 29 28 28 28 27 25 24 22 21 21 20 16 12 9 7
3 3 3 6 9 9 9 3 9 15 8 10 11 9 11 14 12 25 33 32 29 27 22 20 35 43 41 42 40 40 37 36 35 31 30 31 30 30 27 26 26 26 24 22 19 15 12 9 6
6 4 3 6 5 6 7 9 10 7 7 10 11 10 10 12 17 22 26 35 38 33 28 26 28 41 44 40 39 40 38 36 35 36 33 31 34 30 28 28 29 27 24 22 19 16 13 10 7
6 2 4 4 4 3 7 6 10 10 8 12 13 13 14 15 13 20 24 27 32 36 36 31 30 34 39 35 30 30 34 38 36 39 36 33 34 31 31 32 31 28 27 24 20 16 13 9 6
3 4 6 7 2 2 6 12 15 15 13 17 22 19 15 10 8 9 21 23 19 22 32 37 36 32 40 39 40 33 38 37 37 39 35 36 35 36 35 37 33 30 27 23 21 19 15 7 7
4 4 3 4 5 1 7 9 7 6 7 15 18 17 13 16 17 13 11 22 27 25 22 21 31 31 32 39 36 32 33 27 34 35 38 40 41 42 40 38 36 32 29 26 23 21 16 11 7
4 1 2 4 4 4 5 5 6 7 9 6 6 8 14 14 11 12 10 15 26 27 25 21 20 22 26 35 37 36 31 22 33 41 42 43 40 43 41 39 34 33 29 25 23 19 16 12 10
3 5 4 3 3 4 2 2 8 5 6 2 1 5 8 11 8 9 9 19 25 24 27 26 25 24 23 32 38 38 29 30 34 38 40 40 38 40 39 37 35 31 28 24 22 19 15 12 11
6 5 6 4 3 2 4 5 6 3 4 3 5 10 9 3 6 8 12 13 8 6 7 12 13 16 20 28 34 40 32 33 31 33 35 35 36 35 33 33 32 30 28 24 20 18 15 13 11
6 6 2 4 2 6 3 4 9 9 11 4 9 10 7 8 5 2 5 6 9 8 5 4 6 12 14 18 29 35 42 42 41 40 39 38 36 34 34 33 30 29 27 22 20 17 13 12 11
4 6 4 5 2 4 2 5 5 5 7 6 5 7 8 9 7 6 5 3 4 4 2 2 7 10 16 21 24 34 37 41 38 40 40 38 39 39 35 32 30 28 26 23 19 16 12 11 9
4 2 3 4 3 3 4 6 9 4 6 6 7 9 9 8 7 8 4 7 9 6 6 7 10 16 21 26 26 31 35 35 39 39 37 37 36 34 32 30 28 26 24 22 20 16 15 12 9
5 6 3 3 1 3 4 5 5 2 3 5 10 11 13 14 15 8 6 10 14 13 9 10 13 18 24 24 25 29 36 38 38 37 36 35 34 33 32 30 28 26 23 21 18 15 12 10 8
3 1 3 4 4 3 2 6 5 4 3 4 6 6 6 8 11 10 12 16 23 14 12 12 14 16 15 20 24 26 31 33 33 34 33 33 34 33 32 32 29 26 23 19 16 12 9 7 5
4 5 5 4 4 1 1 7 4 3 3 5 14 7 14 7 11 10 11 13 9 12 11 11 12 9 17 24 25 26 29 30 31 31 31 32 32 32 34 32 29 26 21 18 17 15 9 3 3
Wind_Direction
281 286 309 23 50 64 243 258 276 300 334 269 185 110 135 121 213 216 154 166 161 157 157 159 160 156 155 154 154 152 153 152 152 146 141 138 133 129 128 132 131 122 109 121 141 149 154 144 136
276 301 78 86 111 163 258 230 260 251 232 268 170 114 92 118 149 119 130 164 159 158 158 161 163 162 163 163 159 157 155 155 156 152 147 144 141 134 131 133 135 131 122 125 131 138 135 139 136
265 266 107 145 163 200 234 228 231 297 290 248 84 62 132 177 233 159 169 159 160 160 162 165 165 170 169 160 162 161 161 161 159 156 151 148 146 139 135 138 140 139 135 133 129 133 133 135 138
185 31 25 138 215 244 220 191 48 341 304 260 177 65 30 214 167 175 156 160 161 163 166 167 171 174 170 165 161 161 162 162 166 161 155 151 146 142 140 142 144 148 143 137 136 140 138 137 133
162 68 151 202 236 250 255 254 293 286 281 262 125 153 90 76 185 157 157 163 165 165 169 169 173 175 170 166 165 162 161 159 158 158 157 153 148 144 141 140 144 150 151 146 144 143 143 135 123
88 113 134 211 229 253 269 238 232 254 272 280 118 124 195 135 150 157 163 163 169 167 169 172 175 176 173 170 169 168 165 164 165 163 159 155 153 148 144 141 143 144 149 151 150 149 145 133 119
145 123 206 209 237 279 252 144 210 238 249 249 176 105 200 140 152 162 166 168 169 169 171 175 177 178 176 173 171 170 168 165 163 161 160 162 162 155 151 151 150 150 150 151 149 145 138 128 120
136 115 204 227 185 253 257 215 258 214 245 284 162 154 186 200 154 170 170 171 171 172 175 177 178 178 177 175 174 171 169 165 162 165 170 175 179 171 163 160 161 160 159 156 152 147 138 128 120
132 142 209 226 167 232 282 26 302 282 253 147 58 152 192 165 152 152 153 161 169 174 181 181 180 180 181 178 177 175 174 173 174 178 180 181 187 192 186 175 172 171 166 159 151 146 142 133 129
162 181 215 221 206 266 291 94 315 341 314 8 40 38 133 159 164 146 159 167 174 180 187 187 186 183 183 183 181 182 181 184 185 188 188 188 192 200 194 186 179 176 169 160 156 155 158 162 149
192 194 218 258 281 287 327 323 304 313 280 15 2 158 148 172 180 159 174 177 185 188 189 194 191 191 188 188 187 187 189 190 194 197 195 193 195 196 198 193 186 185 177 170 169 170 170 161 168
212 199 223 238 275 311 297 264 226 241 243 252 137 327 304 240 237 198 176 186 186 191 196 197 196 195 195 196 194 193 194 195 198 202 200 197 194 194 197 198 198 194 186 179 175 181 172 163 171
219 256 232 242 269 243 283 259 233 223 263 283 188 181 268 281 238 234 230 195 192 193 198 202 199 200 198 200 200 199 200 200 203 204 204 202 202 205 200 199 200 196 193 191 194 190 184 181 178
222 218 249 246 243 235 250 261 221 251 241 283 296 278 216 265 252 257 231 229 210 202 201 205 205 203 201 200 202 202 203 203 203 202 204 203 207 208 205 202 199 198 196 201 205 188 192 192 198
154 200 274 225 219 249 12 268 224 241 253 264 286 280 265 230 270 253 254 244 226 221 208 208 209 205 203 204 206 205 206 205 207 202 202 206 207 208 205 209 201 206 207 197 189 193 193 199 205
142 78 256 248 203 239 167 252 195 238 243 261 258 273 275 252 235 259 267 261 258 238 220 214 207 206 206 205 207 207 207 208 209 206 203 208 210 212 208 206 208 201 190 187 188 191 196 207 213
22 173 223 307 231 229 182 282 236 240 217 244 258 261 260 265 256 247 252 261 261 257 243 227 205 208 211 211 213 210 209 210 211 210 207 209 211 209 213 209 203 193 190 191 198 196 204 202 205
188 182 238 230 286 199 238 260 269 271 227 231 250 254 255 253 253 242 240 249 257 260 259 248 216 209 214 213 211 209 209 212 213 211 210 209 206 210 211 210 199 196 193 193 195 199 195 199 200
102 117 254 264 274 309 268 264 272 266 275 265 248 248 250 249 257 265 257 248 251 254 255 252 241 213 208 202 193 198 204 212 214 209 210 209 209 210 213 210 200 199 201 201 198 191 189 181 195
263 290 275 281 215 274 297 284 266 257 246 239 247 253 249 257 251 241 250 250 246 250 250 249 250 238 211 206 205 198 201 208 214 210 211 212 213 211 206 204 201 203 201 197 197 196 183 178 182
205 204 231 250 329 80 322 277 253 282 247 250 245 248 251 244 250 250 238 238 249 250 252 253 249 241 227 209 206 206 198 205 205 209 208 213 216 209 207 206 207 203 203 200 200 198 198 177 170
168 158 165 47 41 261 32 290 298 299 301 291 262 251 250 244 242 246 237 242 249 253 247 248 253 245 228 216 210 205 202 189 204 212 211 213 217 209 208 208 206 201 199 201 199 197 202 199 178
171 94 88 89 74 13 271 180 275 305 310 338 199 288 267 239 230 244 234 233 248 254 253 249 249 248 237 217 216 212 203 202 204 206 208 209 212 210 202 203 199 197 193 193 194 195 200 204 194
137 69 37 52 75 342 231 173 281 265 274 328 306 320 325 194 228 247 252 244 240 234 241 252 257 256 243 232 219 217 207 200 191 193 195 197 201 200 197 195 195 193 189 189 191 194 193 195 195
92 74 3 355 359 228 157 138 253 276 277 254 304 317 1 22 25 67 143 146 149 146 149 190 240 255 265 250 230 214 212 210 206 196 191 190 190 192 194 194 190 187 185 186 185 182 180 182 182
140 138 156 209 223 288 291 229 248 245 288 314 36 47 32 13 0 317 268 244 186 184 182 333 283 292 268 259 239 227 218 205 200 196 195 188 187 190 188 189 189 187 181 178 179 175 174 179 172
163 151 184 104 30 33 275 287 308 25 47 55 51 27 359 345 348 329 307 295 288 256 265 291 296 284 276 263 249 219 212 204 200 196 192 189 189 186 181 182 182 182 175 174 171 174 170 175 167
123 151 71 2 114 273 283 273 240 230 65 51 20 359 343 337 329 309 254 254 255 257 265 277 291 292 275 261 233 212 207 202 199 192 183 186 183 182 181 180 179 176 169 167 164 163 161 169 167
139 185 59 123 148 175 320 269 223 177 88 73 343 312 296 296 300 298 302 267 250 253 267 284 296 302 269 220 206 200 192 190 186 182 180 182 179 181 180 176 173 169 160 157 154 154 158 168 166
154 185 153 123 270 163 194 269 266 300 213 309 321 317 326 319 299 306 299 293 281 283 285 289 293 266 209 194 189 181 179 177 174 175 173 176 174 172 172 172 166 161 159 153 156 153 166 202 223